This demonstration page uses our WeatherBlox Daily Observations layout. Learn more.

Left ArrowRight Arrow

44.31136, -96.79839

Hourly Observations for June 16, 2019

Temp ( °F °C ) Dew Point ( °F °C ) Humidity (%) Winds ( mph kmh ) Pressure ( in mb ) Visibility ( mi km ) Precip ( " mm )
12:14 am 00:14 Mostly Clear with Mist and Fog 61 16 61 16 100 100 WNW 3 6 29.79 1009 2 3 0.00 0.00
12:18 am 00:18 Mostly Cloudy with Mist and Fog 61 16 61 16 100 100 W 5 7 29.79 1009 1 1 0.00 0.00
12:25 am 00:25 Mostly Cloudy with Fog 61 16 59 15 94 94 WNW 5 7 29.80 1009 1 1 0.00 0.00
12:32 am 00:32 Mostly Cloudy with Fog 61 16 59 15 94 94 WNW 6 9 29.80 1009 0 0 0.00 0.00
12:42 am 00:42 Mostly Cloudy with Fog 61 16 61 16 100 100 WNW 5 7 29.80 1009 1 1 0.00 0.00
12:56 am 00:56 Mostly Cloudy with Mist and Fog 60 15.6 60 15.6 100 100 WNW 6 9 29.84 1011 1 1 0.00 0.00
1:03 am 01:03 Mostly Cloudy with Mist and Fog 61 16 59 15 94 94 WNW 5 7 29.79 1009 1 1 0.00 0.00
1:07 am 01:07 Mostly Cloudy with Fog 59 15 59 15 100 100 Calm 29.80 1009 0 0 0.00 0.00
1:56 am 01:56 Cloudy with Fog 59 15 59 15 100 100 Calm 29.85 1011 0 0 0.00 0.00
2:56 am 02:56 Cloudy with Fog 59 15 59 15 100 100 Calm 29.85 1011 0 0 0.00 0.00
3:14 am 03:14 Mostly Cloudy with Fog 59 15 59 15 100 100 ENE 3 6 29.81 1009 1 1 0.00 0.00
3:21 am 03:21 Mostly Cloudy with Mist and Fog 57 14 57 14 100 100 ENE 3 6 29.82 1010 1 1 0.00 0.00
3:27 am 03:27 Mostly Cloudy with Mist and Fog 57 14 57 14 100 100 Calm 29.82 1010 1 2 0.00 0.00
3:34 am 03:34 Mostly Cloudy with Mist and Fog 57 14 57 14 100 100 E 3 6 N/A 1 2 0.00 0.00
3:48 am 03:48 Cloudy with Mist and Fog 57 14 57 14 100 100 Calm 29.82 1010 1 1 0.00 0.00
3:52 am 03:52 Cloudy with Fog 57 14 57 14 100 100 Calm 29.81 1009 0 0 0.00 0.00
3:56 am 03:56 Cloudy with Fog 58 14.4 58 14.4 100 100 Calm 29.85 1011 0 0 0.00 0.00
4:41 am 04:41 Cloudy with Fog 55 13 55 13 100 100 Calm 29.82 1010 0 0 0.00 0.00
5:56 am 05:56 Cloudy with Light Rain 56 13.3 56 13.3 100 100 Calm 29.86 1011 5 8 0.00 0.03
6:56 am 06:56 Cloudy with Light Rain 57 13.9 57 13.9 100 100 ESE 3 6 29.89 1012 5 8 0.00 0.03
7:56 am 07:56 Cloudy with Fog 58 14.4 58 14.4 100 100 SSW 3 6 29.92 1013 5 8 0.00 0.03
8:56 am 08:56 Cloudy with Fog 62 16.7 62 16.7 100 100 SSW 6 9 29.95 1014 1 1 0.00 0.00
9:06 am 09:06 Cloudy with Mist and Fog 63 17 63 17 100 100 Calm 29.89 1012 1 2 0.00 0.00
9:10 am 09:10 Cloudy with Mist and Fog 63 17 63 17 100 100 WSW 5 7 29.89 1012 2 3 0.00 0.00
9:15 am 09:15 Cloudy with Mist and Fog 63 17 63 17 100 100 Calm 29.88 1012 4 6 0.00 0.00
9:49 am 09:49 Partly Cloudy 64 18 63 17 94 94 Calm 29.87 1012 10 16 0.00 0.00
9:56 am 09:56 Mostly Sunny 65 18.3 62 16.7 90 90 NNW 3 6 29.93 1014 10 16 0.00 0.00
10:56 am 10:56 Partly Cloudy 68 20 63 17.2 84 84 NNW 3 6 29.92 1013 10 16 0.00 0.00
11:11 am 11:11 Mostly Cloudy 70 21 63 17 78 78 VRB 5 7 29.84 1011 10 16 0.00 0.00
11:25 am 11:25 Partly Cloudy 72 22 61 16 69 69 NW 6 9 29.84 1010 10 16 0.00 0.00
11:56 am 11:56 Mostly Sunny 73 22.8 61 16.1 66 66 VRB 3 6 29.92 1013 8 13 0.00 0.00
12:32 pm 12:32 Mostly Sunny 73 23 61 16 65 65 WNW 9 15 29.84 1011 10 16 0.00 0.00
12:56 pm 12:56 Mostly Cloudy 75 23.9 61 16.1 62 62 NW 10 17 29.92 1013 10 16 0.00 0.00
1:22 pm 13:22 Mostly Sunny 75 24 57 14 54 54 WNW 13 20 29.83 1010 10 16 0.00 0.00
1:56 pm 13:56 Mostly Sunny 74 23.3 57 13.9 56 56 WNW 9 15 29.92 1013 10 16 0.00 0.00
2:56 pm 14:56 Sunny 75 23.9 57 13.9 54 54 NW 12 19 29.91 1013 10 16 0.00 0.00
3:56 pm 15:56 Mostly Sunny 77 25 57 13.9 50 50 NW 12 19 29.91 1013 10 16 0.00 0.00
4:56 pm 16:56 Mostly Sunny 77 25 57 13.9 50 50 NW 10 17 29.91 1013 10 16 0.00 0.00
5:22 pm 17:22 Mostly Sunny 77 25 55 13 47 47 NW 9 15 29.81 1009 10 16 0.00 0.00
5:56 pm 17:56 Sunny 77 25 58 14.4 52 52 NNW 9 15 29.90 1012 10 16 0.00 0.00
6:56 pm 18:56 Sunny 76 24.4 57 13.9 52 52 NW 10 17 29.90 1013 10 16 0.00 0.00
7:56 pm 19:56 Sunny 74 23.3 57 13.9 56 56 NNW 8 13 29.91 1013 10 16 0.00 0.00
8:56 pm 20:56 Sunny 71 21.7 57 13.9 61 61 NNW 5 7 29.93 1014 10 16 0.00 0.00
9:56 pm 21:56 Clear 69 20.6 56 13.3 63 63 N 3 6 29.95 1014 10 16 0.00 0.00
10:56 pm 22:56 Clear 66 18.9 56 13.3 70 70 N 5 7 29.97 1015 10 16 0.00 0.00
11:56 pm 23:56 Mostly Cloudy 64 17.8 56 13.3 75 75 NNE 7 11 29.97 1015 10 16 0.00 0.00

Powered by AerisWeather